EW3165 Weather Reports


Display with metric or nautical units.
time (UTC)temp
F
wind
direction
speed
MPH
gust
MPH
rain 1hr
in
rain 24hr
in
rain mn
in
humidity
%
barometer
mb
20181023184912 73 183 3.0 7.0 0.00 0.00 0.00 21 1015.7
20181023182910 74 232 1.0 5.0 0.00 0.00 0.00 21 1015.9
20181023181910 73 255 1.0 5.0 0.00 0.00 0.00 22 1015.8
20181023180910 73 127 2.0 5.0 0.00 0.00 0.00 21 1015.8
20181023175907 72 219 1.0 4.0 0.00 0.00 0.00 24 1015.7
20181023174908 71 124 2.0 5.0 0.00 0.00 0.00 25 1015.6
20181023173908 71 111 2.0 4.0 0.00 0.00 0.00 26 1015.5
20181023172908 69 137 2.0 5.0 0.00 0.00 0.00 27 1015.6
20181023171906 68 148 2.0 4.0 0.00 0.00 0.00 29 1015.6
20181023170906 67 159 1.0 4.0 0.00 0.00 0.00 31 1015.6
20181023165906 65 108 2.0 5.0 0.00 0.00 0.00 34 1015.6
20181023164905 64 62 2.0 6.0 0.00 0.00 0.00 35 1015.7
20181023163906 62 98 2.0 5.0 0.00 0.00 0.00 36 1015.7
20181023162906 62 75 2.0 5.0 0.00 0.00 0.00 35 1015.6
20181023161906 63 101 2.0 5.0 0.00 0.00 0.00 34 1015.5
20181023160905 62 91 2.0 6.0 0.00 0.00 0.00 35 1015.6
20181023155905 62 68 2.0 6.0 0.00 0.00 0.00 35 1015.5
20181023154906 60 74 3.0 6.0 0.00 0.00 0.00 37 1015.4
20181023153906 59 100 3.0 7.0 0.00 0.00 0.00 38 1015.3
20181023152905 58 132 3.0 7.0 0.00 0.00 0.00 39 1015.2
20181023151905 57 82 3.0 9.0 0.00 0.00 0.00 40 1015.0
20181023150909 56 84 3.0 6.0 0.00 0.00 0.00 41 1014.7
20181023150905 56 124 3.0 8.0 0.00 0.00 0.00 40 1014.8
20181023144906 55 68 3.0 6.0 0.00 0.00 0.00 41 1014.6
20181023143906 55 63 2.0 5.0 0.00 0.00 0.00 42 1014.5
20181023142905 55 77 2.0 7.0 0.00 0.00 0.00 41 1014.5
20181023141906 55 95 3.0 7.0 0.00 0.00 0.00 42 1014.4
20181023140906 55 75 2.0 5.0 0.00 0.00 0.00 41 1014.3
20181023135906 55 84 3.0 6.0 0.00 0.00 0.00 41 1014.2
20181023134905 55 72 3.0 6.0 0.00 0.00 0.00 41 1014.2
20181023133905 55 79 2.0 6.0 0.00 0.00 0.00 41 1014.1
20181023132905 55 76 2.0 7.0 0.00 0.00 0.00 41 1014.2
20181023131906 55 88 3.0 7.0 0.00 0.00 0.00 41 1014.1
20181023130906 55 89 3.0 7.0 0.00 0.00 0.00 41 1014.1
20181023125906 55 77 3.0 7.0 0.00 0.00 0.00 41 1014.1
20181023124906 55 75 2.0 6.0 0.00 0.00 0.00 41 1014.0
20181023123906 55 93 2.0 7.0 0.00 0.00 0.00 41 1014.0
20181023122903 55 72 2.0 7.0 0.00 0.00 0.00 40 1014.1
20181023121904 55 75 2.0 7.0 0.00 0.00 0.00 40 1013.9
20181023120903 55 56 2.0 5.0 0.00 0.00 0.00 40 1013.8
20181023115903 55 79 2.0 7.0 0.00 0.00 0.00 40 1013.8
20181023114903 56 72 2.0 6.0 0.00 0.00 0.00 39 1013.6
20181023113903 56 77 3.0 8.0 0.00 0.00 0.00 39 1013.8
20181023112903 56 70 3.0 6.0 0.00 0.00 0.00 39 1013.6
20181023111903 56 51 3.0 8.0 0.00 0.00 0.00 39 1013.6
20181023110903 56 79 2.0 7.0 0.00 0.00 0.00 39 1013.6
20181023105904 56 73 3.0 8.0 0.00 0.00 0.00 38 1013.6
20181023104904 56 62 3.0 7.0 0.00 0.00 0.00 38 1013.5
20181023103904 56 70 3.0 8.0 0.00 0.00 0.00 38 1013.6
20181023102903 56 74 3.0 9.0 0.00 0.00 0.00 39 1013.6
20181023101904 56 60 3.0 7.0 0.00 0.00 0.00 38 1013.5
20181023100904 56 58 3.0 6.0 0.00 0.00 0.00 39 1013.5
20181023095904 56 68 3.0 9.0 0.00 0.00 0.00 38 1013.5
20181023094902 56 73 3.0 7.0 0.00 0.00 0.00 39 1013.6
20181023093901 56 72 3.0 8.0 0.00 0.00 0.00 39 1013.8
20181023092902 56 82 2.0 5.0 0.00 0.00 0.00 39 1013.8
20181023091903 56 74 2.0 6.0 0.00 0.00 0.00 39 1013.8
20181023090902 56 73 2.0 5.0 0.00 0.00 0.00 39 1013.8
20181023085901 56 89 3.0 8.0 0.00 0.00 0.00 38 1013.5
20181023084901 56 75 3.0 10.0 0.00 0.00 0.00 38 1013.5
20181023083859 56 79 3.0 8.0 0.00 0.00 0.00 39 1013.6
20181023082859 56 72 3.0 7.0 0.00 0.00 0.00 39 1013.8
20181023081900 56 63 3.0 7.0 0.00 0.00 0.00 39 1013.6
20181023080859 56 80 2.0 6.0 0.00 0.00 0.00 39 1013.8
20181023075859 56 70 2.0 4.0 0.00 0.00 0.00 40 1013.8
20181023074857 56 73 2.0 5.0 0.00 0.00 0.00 40 1013.8
20181023073857 56 75 1.0 5.0 0.00 0.00 0.00 40 1013.8
20181023072858 56 63 1.0 3.0 0.00 0.00 0.00 40 1013.8
20181023071858 56 98 0.0 1.0 0.00 0.00 0.00 39 1013.8
20181023070855 56 82 0.0 1.0 0.00 0.00 0.00 40 1013.8
20181023065856 55 81 0.0 1.0 0.00 0.00 0.00 40 1013.8
20181023064854 55 80 0.0 1.0 0.00 0.00 0.00 40 1013.9
20181023063852 55 82 0.0 1.0 0.00 0.00 0.00 41 1013.9
20181023062850 55 82 0.0 1.0 0.00 0.00 0.00 41 1013.9
20181023061848 56 82 0.0 0.0 0.00 0.00 0.00 40 1013.8
20181023060848 57 82 0.0 2.0 0.00 0.00 0.00 38 1013.8
20181023055846 58 79 1.0 3.0 0.00 0.00 0.00 38 1013.6
20181023054844 58 72 1.0 3.0 0.00 0.00 0.00 38 1013.6
20181023053844 58 68 1.0 3.0 0.00 0.00 0.00 38 1013.6
20181023052844 58 75 1.0 3.0 0.00 0.00 0.00 37 1013.6
20181023051844 58 77 1.0 3.0 0.00 0.00 0.00 37 1013.6
20181023050844 58 77 1.0 3.0 0.00 0.00 0.00 37 1013.6
20181023045844 58 69 1.0 4.0 0.00 0.00 0.00 37 1013.6
20181023044844 58 79 1.0 4.0 0.00 0.00 0.00 38 1013.6
20181023043844 58 82 2.0 5.0 0.00 0.00 0.00 38 1013.6
20181023042844 58 94 1.0 4.0 0.00 0.00 0.00 38 1013.5
20181023041844 58 77 1.0 3.0 0.00 0.00 0.00 38 1013.5
20181023040844 58 56 1.0 3.0 0.00 0.00 0.00 39 1013.5
20181023035844 57 89 1.0 2.0 0.00 0.00 0.00 39 1013.5
20181023034844 57 77 0.0 2.0 0.00 0.00 0.00 39 1013.5
20181023033843 57 52 0.0 0.0 0.00 0.00 0.00 40 1013.5
20181023032841 57 63 0.0 0.0 0.00 0.00 0.00 40 1013.4
20181023031839 57 63 0.0 0.0 0.00 0.00 0.00 40 1013.4
20181023030837 57 63 0.0 0.0 0.00 0.00 0.00 40 1013.3
20181023025834 58 63 0.0 0.0 0.00 0.00 0.00 39 1013.3
20181023024831 58 63 0.0 0.0 0.00 0.00 0.00 39 1013.3
20181023023831 59 64 0.0 0.0 0.00 0.00 0.00 39 1013.2
20181023022831 59 64 0.0 0.0 0.00 0.00 0.00 39 1013.1
20181023021831 60 63 0.0 1.0 0.00 0.00 0.00 38 1013.1
20181023020829 61 63 0.0 1.0 0.00 0.00 0.00 37 1013.0
20181023015830 62 43 0.0 1.0 0.00 0.00 0.00 36 1013.0
20181023014829 63 256 0.0 0.0 0.00 0.00 0.00 34 1012.9
20181023013828 64 256 0.0 0.0 0.00 0.00 0.00 33 1012.9
20181023012828 65 256 0.0 1.0 0.00 0.00 0.00 31 1012.9
20181023011827 67 255 0.0 0.0 0.00 0.00 0.00 29 1012.8
20181023010827 69 256 0.0 0.0 0.00 0.00 0.00 27 1012.7
20181023005824 71 256 0.0 1.0 0.00 0.00 0.00 25 1012.7
20181023004824 73 249 0.0 3.0 0.00 0.00 0.00 23 1012.6
20181023003825 74 267 0.0 1.0 0.00 0.00 0.00 22 1012.6
20181023002824 75 259 0.0 1.0 0.00 0.00 0.00 22 1012.5
20181023001825 75 256 0.0 4.0 0.00 0.00 0.00 22 1012.5
20181023000827 75 260 1.0 5.0 0.00 0.00 0.00 22 1012.5
20181022235822 75 248 1.0 3.0 0.00 0.00 0.00 22 1012.6
20181022234822 75 274 1.0 4.0 0.00 0.00 0.00 21 1012.6
20181022233823 75 30 1.0 4.0 0.00 0.00 0.00 22 1012.6
20181022232823 75 259 2.0 8.0 0.00 0.00 0.00 23 1012.6
20181022231823 75 321 2.0 7.0 0.00 0.00 0.00 24 1012.6
20181022230820 75 309 2.0 8.0 0.00 0.00 0.00 23 1012.6
20181022225821 76 255 2.0 5.0 0.00 0.00 0.00 23 1012.6
20181022224821 76 316 2.0 7.0 0.00 0.00 0.00 22 1012.5
20181022223820 75 285 2.0 7.0 0.00 0.00 0.00 24 1012.5
20181022222820 76 312 2.0 7.0 0.00 0.00 0.00 23 1012.4
20181022221822 75 252 2.0 9.0 0.00 0.00 0.00 23 1012.4
20181022220821 76 250 2.0 7.0 0.00 0.00 0.00 24 1012.4
20181022215820 75 30 3.0 7.0 0.00 0.00 0.00 22 1012.2
20181022214820 76 243 2.0 8.0 0.00 0.00 0.00 23 1012.1
20181022213820 76 211 3.0 9.0 0.00 0.00 0.00 23 1012.1
20181022212820 76 328 2.0 8.0 0.00 0.00 0.00 24 1012.1
20181022211825 76 280 3.0 10.0 0.00 0.00 0.00 21 1012.2
20181022211819 76 264 2.0 8.0 0.00 0.00 0.00 23 1012.2
20181022205818 76 318 3.0 10.0 0.00 0.00 0.00 23 1012.4
20181022204825 77 259 2.0 10.0 0.00 0.00 0.00 20 1012.5
20181022204819 77 211 3.0 7.0 0.00 0.00 0.00 20 1012.4
20181022202816 77 262 3.0 8.0 0.00 0.00 0.00 21 1012.6
20181022201816 77 242 3.0 9.0 0.00 0.00 0.00 19 1012.5
20181022200818 77 281 2.0 6.0 0.00 0.00 0.00 20 1012.6
20181022195816 77 248 3.0 10.0 0.00 0.00 0.00 19 1012.7
20181022194817 78 105 2.0 7.0 0.00 0.00 0.00 21 1012.7
20181022193816 78 201 2.0 8.0 0.00 0.00 0.00 20 1012.9
20181022192822 77 278 2.0 7.0 0.00 0.00 0.00 19 1013.1
20181022192816 77 214 2.0 7.0 0.00 0.00 0.00 20 1012.9
20181022190816 77 285 2.0 6.0 0.00 0.00 0.00 21 1013.1
20181022185816 76 321 2.0 7.0 0.00 0.00 0.00 22 1013.1